CDT,Max TemperatureF,Mean TemperatureF,Min TemperatureF,Max Dew PointF,MeanDew PointF,Min DewpointF,Max Humidity, Mean Humidity, Min Humidity, Max Sea Level PressureIn, Mean Sea Level PressureIn, Min Sea Level PressureIn, Max VisibilityMiles, Mean VisibilityMiles, Min VisibilityMiles, Max Wind SpeedMPH, Mean Wind SpeedMPH, Max Gust SpeedMPH,PrecipitationIn, CloudCover, Events, WindDirDegrees
2011-10-1,56,42,28,37,32,27,94,73,35,30.37,30.30,30.24,10,9,1,5,0,,0.00,0,,187
2011-10-2,72,52,31,48,37,28,93,69,32,30.25,30.21,30.15,10,10,10,9,1,,0.00,0,,262
2011-10-3,72,56,40,50,44,38,93,69,32,30.27,30.23,30.20,10,10,10,7,1,,0.00,0,,150
2011-10-4,77,60,43,50,45,41,93,66,29,30.26,30.22,30.16,10,10,2,10,2,18,0.00,0,,203
2011-10-5,80,62,45,51,47,43,93,61,27,30.21,30.18,30.13,10,10,10,14,4,18,0.00,0,,142
2011-10-6,77,62,46,50,47,41,92,59,28,30.23,30.19,30.16,10,10,10,13,5,18,0.00,0,,145
2011-10-7,77,68,59,53,49,43,69,50,31,30.18,30.12,30.03,10,10,10,25,11,34,0.00,0,,173
2011-10-8,79,71,63,54,50,46,60,48,37,30.16,30.12,30.06,10,10,10,18,14,28,0.00,2,,197
2011-10-9,79,69,59,53,48,39,72,50,24,30.29,30.24,30.20,10,10,10,12,7,16,0.00,2,,199
2011-10-10,79,62,48,53,48,46,92,64,36,30.25,30.12,30.00,10,10,7,16,4,25,0.00,0,,152
2011-10-11,69,62,56,56,52,48,90,69,60,29.99,29.95,29.90,10,10,10,16,7,17,0.00,4,Rain,174
2011-10-12,69,64,58,58,56,54,94,83,58,29.91,29.82,29.71,10,6,1,10,6,,0.25,6,Rain-Thunderstorm,155
2011-10-13,56,54,51,55,53,49,95,92,89,29.68,29.55,29.48,10,6,0,13,3,20,0.95,8,Fog-Rain,139
2011-10-14,49,46,44,45,40,37,86,79,70,29.52,29.47,29.44,10,10,7,18,12,31,0.01,8,Rain,303
2011-10-15,51,45,39,33,31,28,69,57,46,29.70,29.63,29.53,10,10,10,26,17,38,0.00,3,,293
2011-10-16,52,46,40,36,29,21,79,54,32,29.72,29.65,29.58,10,10,10,22,11,36,0.00,3,,277
2011-10-17,51,46,41,36,31,27,76,56,48,29.74,29.63,29.59,10,10,10,18,13,28,0.00,4,,290
2011-10-18,46,42,39,37,35,32,90,78,61,29.98,29.87,29.76,10,9,4,15,8,20,0.00,7,Rain,336
2011-10-19,44,40,36,37,35,32,91,82,68,30.03,29.99,29.96,10,10,5,15,7,28,0.01,7,Rain,15
2011-10-20,39,38,36,36,34,32,91,84,76,29.91,29.83,29.79,10,8,2,22,15,38,0.01,8,Rain,357
2011-10-21,52,42,32,35,31,23,94,72,32,30.00,29.96,29.88,10,10,5,9,3,,0.00,2,,281
2011-10-22,52,42,31,40,33,28,88,73,47,30.05,30.01,29.95,10,10,10,12,2,,0.00,1,,333
2011-10-23,56,43,30,48,38,28,92,81,60,29.97,29.83,29.71,10,10,5,12,4,20,0.16,4,Rain-Thunderstorm,206
2011-10-24,52,45,38,40,35,28,93,75,39,30.06,29.94,29.81,10,10,10,13,5,17,0.03,2,,290
2011-10-25,42,39,35,35,33,32,93,76,67,30.08,30.02,29.95,10,9,2,14,3,16,0.21,8,Rain-Snow,71
2011-10-26,45,38,30,38,34,29,94,86,59,30.03,30.01,29.98,10,9,0,9,4,16,0.01,6,Fog-Rain,352
2011-10-27,42,33,24,35,29,22,94,82,61,30.07,30.00,29.98,10,9,0,7,1,,0.00,3,Fog-Rain,255
2011-10-28,45,36,26,37,30,24,94,84,51,30.06,30.01,29.95,10,9,2,14,2,17,0.06,4,Rain-Snow,205
2011-10-29,44,36,27,36,30,26,94,81,50,30.03,29.99,29.94,10,7,0,10,1,,0.06,4,Fog,274
2011-10-30,43,36,29,38,32,26,90,80,61,30.02,29.91,29.83,10,10,5,15,4,18,0.03,5,Rain,116
2011-10-31,44,42,39,40,37,34,95,85,70,29.99,29.93,29.87,10,7,0,7,3,,0.00,8,Fog,265